AAL2187 MYNN-KDFW

Flight info

Callsign AAL2187
Flight time N/A
Altitude 30000
Route DCT PEACH Y421 OCTAL Y280 NAITE/N0474F320 Y280 LEV DCT AEX DCT PNUTS BEREE3
Aircraft B738/M-SDE2E3FGHIRWXY/LB1

Departure

Time N/A
Airport Lynden Pindling International Airport (MYNN)

Arrival

Time 2026-05-04 00:17
Airport Dallas Fort Worth International Airport (KDFW)
Time Latitude Longitude Altitude Speed Heading
2026-05-03 23:06 29.16425 -90.05088 36144 ft 389 kts 284°
2026-05-03 23:06 29.17382 -90.07975 36163 ft 390 kts 294°
2026-05-03 23:07 29.20225 -90.13293 36158 ft 394 kts 303°
2026-05-03 23:07 29.24084 -90.17841 36153 ft 400 kts 309°
2026-05-03 23:08 29.28078 -90.22285 36165 ft 401 kts 310°
2026-05-03 23:08 29.32066 -90.26742 36157 ft 400 kts 310°
2026-05-03 23:09 29.36021 -90.31175 36164 ft 399 kts 310°
2026-05-03 23:09 29.39991 -90.35630 36165 ft 399 kts 310°
2026-05-03 23:10 29.43963 -90.40089 36163 ft 398 kts 310°
2026-05-03 23:10 29.47906 -90.44525 36161 ft 396 kts 310°
2026-05-03 23:11 29.51815 -90.48931 36159 ft 396 kts 310°
2026-05-03 23:11 29.55747 -90.53365 36170 ft 396 kts 310°
2026-05-03 23:12 29.59684 -90.57811 36158 ft 396 kts 310°
2026-05-03 23:12 29.63619 -90.62260 36159 ft 396 kts 310°
2026-05-03 23:13 29.67551 -90.66709 36158 ft 396 kts 310°
2026-05-03 23:13 29.71455 -90.71131 36158 ft 396 kts 310°
2026-05-03 23:14 29.75381 -90.75585 36160 ft 396 kts 310°
2026-05-03 23:14 29.79307 -90.80033 36153 ft 395 kts 311°
2026-05-03 23:15 29.83214 -90.84478 36207 ft 394 kts 311°
2026-05-03 23:15 29.87121 -90.88929 36178 ft 395 kts 311°
2026-05-03 23:16 29.91027 -90.93381 36168 ft 395 kts 311°
2026-05-03 23:16 29.94928 -90.97832 36151 ft 394 kts 311°
2026-05-03 23:17 29.98800 -91.02254 36149 ft 394 kts 311°
2026-05-03 23:17 30.02699 -91.06713 36148 ft 394 kts 311°
2026-05-03 23:18 30.06595 -91.11174 36147 ft 394 kts 311°
2026-05-03 23:18 30.10494 -91.15640 36139 ft 394 kts 311°
2026-05-03 23:19 30.14357 -91.20069 36168 ft 393 kts 311°
2026-05-03 23:19 30.18233 -91.24525 36150 ft 393 kts 311°
2026-05-03 23:20 30.22105 -91.28980 36150 ft 392 kts 311°
2026-05-03 23:20 30.25968 -91.33430 36155 ft 391 kts 311°
2026-05-03 23:21 30.29827 -91.37878 36154 ft 391 kts 311°
2026-05-03 23:21 30.33659 -91.42302 36152 ft 391 kts 311°
2026-05-03 23:22 30.39452 -91.48999 36195 ft 393 kts 312°
2026-05-03 23:22 30.43330 -91.53487 36133 ft 394 kts 312°
2026-05-03 23:23 30.47203 -91.57977 36141 ft 393 kts 312°
2026-05-03 23:23 30.51065 -91.62458 36141 ft 392 kts 312°
2026-05-03 23:24 30.54887 -91.66898 36140 ft 391 kts 312°
2026-05-03 23:24 30.58730 -91.71369 36136 ft 391 kts 312°
2026-05-03 23:25 30.62569 -91.75839 36135 ft 390 kts 312°
2026-05-03 23:25 30.66406 -91.80312 36141 ft 390 kts 312°
2026-05-03 23:26 30.70233 -91.84780 36143 ft 390 kts 312°
2026-05-03 23:26 30.74035 -91.89223 36134 ft 390 kts 312°
2026-05-03 23:27 30.77852 -91.93690 36130 ft 387 kts 312°
2026-05-03 23:27 30.81644 -91.98130 36132 ft 385 kts 311°
2026-05-03 23:28 30.85397 -92.02531 36137 ft 384 kts 312°
2026-05-03 23:28 30.89156 -92.06945 36136 ft 383 kts 311°
2026-05-03 23:29 30.92901 -92.11348 36138 ft 382 kts 311°
2026-05-03 23:29 30.96650 -92.15761 36157 ft 384 kts 312°
2026-05-03 23:30 31.00425 -92.20209 36147 ft 386 kts 312°
2026-05-03 23:30 31.04180 -92.24637 36135 ft 387 kts 312°
2026-05-03 23:31 31.07969 -92.29112 36103 ft 387 kts 312°
2026-05-03 23:31 31.11724 -92.33549 36125 ft 381 kts 312°
2026-05-03 23:32 31.15438 -92.37941 36125 ft 379 kts 312°
2026-05-03 23:32 31.19112 -92.42290 36125 ft 378 kts 311°
2026-05-03 23:33 31.22807 -92.46677 36152 ft 379 kts 311°
2026-05-03 23:33 31.25992 -92.51589 36135 ft 384 kts 300°
2026-05-03 23:34 31.28204 -92.57327 36122 ft 389 kts 293°
2026-05-03 23:34 31.30185 -92.63236 36122 ft 390 kts 292°
2026-05-03 23:35 31.32166 -92.69104 36108 ft 388 kts 293°
2026-05-03 23:35 31.34130 -92.74894 36114 ft 378 kts 293°
2026-05-03 23:36 31.36072 -92.80610 36132 ft 377 kts 293°
2026-05-03 23:36 31.38009 -92.86320 36131 ft 377 kts 293°
2026-05-03 23:37 31.39945 -92.91926 36119 ft 366 kts 294°
2026-05-03 23:37 31.41499 -92.96448 36117 ft 354 kts 294°
2026-05-03 23:38 31.43266 -93.01695 36114 ft 340 kts 294°
2026-05-03 23:38 31.44963 -93.06747 36099 ft 326 kts 294°
2026-05-03 23:39 31.46589 -93.11588 36118 ft 313 kts 294°
2026-05-03 23:39 31.48152 -93.16241 36116 ft 301 kts 294°
2026-05-03 23:40 31.48910 -93.18498 36124 ft 295 kts 294°
2026-05-03 23:40 31.49644 -93.20687 36132 ft 289 kts 294°
2026-05-03 23:40 31.50373 -93.22865 36120 ft 284 kts 294°
2026-05-03 23:40 31.51085 -93.24994 36118 ft 277 kts 294°
2026-05-03 23:41 31.51782 -93.27077 36115 ft 271 kts 294°
2026-05-03 23:41 31.52463 -93.29112 36105 ft 265 kts 294°
2026-05-03 23:41 31.53134 -93.31110 36115 ft 261 kts 294°
2026-05-03 23:41 31.53792 -93.33073 36109 ft 256 kts 294°
2026-05-03 23:42 31.54435 -93.35000 36108 ft 251 kts 294°
2026-05-03 23:42 31.55061 -93.36885 36157 ft 246 kts 293°
2026-05-03 23:42 31.55604 -93.38810 36119 ft 251 kts 291°
2026-05-03 23:42 31.56170 -93.40764 35576 ft 270 kts 292°
2026-05-03 23:43 31.56846 -93.43028 34287 ft 318 kts 291°
2026-05-03 23:43 31.57499 -93.45634 33619 ft 344 kts 288°
2026-05-03 23:43 31.58304 -93.48351 33082 ft 361 kts 298°
2026-05-03 23:43 31.59495 -93.50958 33262 ft 364 kts 297°
2026-05-03 23:44 31.60571 -93.53667 33478 ft 367 kts 294°
2026-05-03 23:44 31.61466 -93.56488 33688 ft 370 kts 290°
2026-05-03 23:44 31.62205 -93.59345 33915 ft 372 kts 289°
2026-05-03 23:44 31.62912 -93.62277 34164 ft 373 kts 288°
2026-05-03 23:45 31.63611 -93.65211 34379 ft 374 kts 288°
2026-05-03 23:45 31.64318 -93.68152 34579 ft 374 kts 289°
2026-05-03 23:45 31.65036 -93.71096 34772 ft 375 kts 289°
2026-05-03 23:45 31.65762 -93.74042 34948 ft 376 kts 289°
2026-05-03 23:46 31.66496 -93.77000 35124 ft 377 kts 289°
2026-05-03 23:46 31.67233 -93.79957 35294 ft 378 kts 289°
2026-05-03 23:46 31.68708 -93.85859 35132 ft 370 kts 289°
2026-05-03 23:47 31.69415 -93.88695 34574 ft 366 kts 289°
2026-05-03 23:47 31.70136 -93.91580 33724 ft 370 kts 289°
2026-05-03 23:47 31.70871 -93.94517 32632 ft 379 kts 289°
2026-05-03 23:47 31.71598 -93.97442 32456 ft 371 kts 289°
2026-05-03 23:48 31.72328 -94.00375 32325 ft 372 kts 289°
2026-05-03 23:48 31.73046 -94.03263 32181 ft 366 kts 289°
2026-05-03 23:48 31.74470 -94.09001 32137 ft 367 kts 289°
2026-05-03 23:49 31.75900 -94.14770 32130 ft 371 kts 289°
2026-05-03 23:49 31.77338 -94.20591 32101 ft 369 kts 289°
2026-05-03 23:50 31.78751 -94.26323 32126 ft 362 kts 289°
2026-05-03 23:50 31.80156 -94.32029 32134 ft 364 kts 289°
2026-05-03 23:51 31.81562 -94.37752 32131 ft 365 kts 289°
2026-05-03 23:51 31.82969 -94.43490 32135 ft 366 kts 289°
2026-05-03 23:52 31.84378 -94.49252 32137 ft 366 kts 288°
2026-05-03 23:52 31.85776 -94.54982 32134 ft 367 kts 288°
2026-05-03 23:53 31.87177 -94.60732 32118 ft 362 kts 288°
2026-05-03 23:53 31.88553 -94.66398 32133 ft 360 kts 288°
2026-05-03 23:54 31.89929 -94.72070 32119 ft 361 kts 288°
2026-05-03 23:54 31.91307 -94.77759 32114 ft 362 kts 288°
2026-05-03 23:55 31.92685 -94.83462 32112 ft 362 kts 288°
2026-05-03 23:55 31.94055 -94.89141 32114 ft 363 kts 288°
2026-05-03 23:56 31.95431 -94.94856 32115 ft 363 kts 288°
2026-05-03 23:56 31.96803 -95.00561 32088 ft 361 kts 288°
2026-05-03 23:57 31.98166 -95.06243 32096 ft 360 kts 288°
2026-05-03 23:57 31.99523 -95.11928 32091 ft 360 kts 288°
2026-05-03 23:58 32.00870 -95.17608 32089 ft 360 kts 288°
2026-05-03 23:58 32.02209 -95.23247 32092 ft 359 kts 288°
2026-05-03 23:59 32.04536 -95.33082 32108 ft 359 kts 288°
2026-05-03 23:59 32.05978 -95.39177 32094 ft 359 kts 288°
2026-05-04 00:00 32.09436 -95.53856 32095 ft 358 kts 288°
2026-05-04 00:00 32.11158 -95.61118 31701 ft 382 kts 287°
2026-05-04 00:01 32.14040 -95.73434 29432 ft 399 kts 287°
2026-05-04 00:01 32.14935 -95.77268 28890 ft 387 kts 287°
2026-05-04 00:01 32.15638 -95.80276 28603 ft 388 kts 287°
2026-05-04 00:01 32.16365 -95.83396 28351 ft 400 kts 287°
2026-05-04 00:02 32.17112 -95.86599 28086 ft 408 kts 287°
2026-05-04 00:02 32.17852 -95.89788 27817 ft 396 kts 287°
2026-05-04 00:02 32.18566 -95.92881 27546 ft 382 kts 287°
2026-05-04 00:02 32.19789 -95.98194 27064 ft 363 kts 287°
2026-05-04 00:03 32.20585 -96.01668 26719 ft 362 kts 287°
2026-05-04 00:03 32.22530 -96.10124 25207 ft 368 kts 286°
2026-05-04 00:03 32.25008 -96.20874 23385 ft 359 kts 286°
2026-05-04 00:03 32.26328 -96.26587 22294 ft 359 kts 285°
2026-05-04 00:04 32.27554 -96.31593 21395 ft 357 kts 294°
2026-05-04 00:04 32.28903 -96.34005 20784 ft 360 kts 310°
2026-05-04 00:04 32.34061 -96.40005 19355 ft 363 kts 314°
2026-05-04 00:04 32.41349 -96.48279 17302 ft 358 kts 314°
2026-05-04 00:05 32.47930 -96.55840 16019 ft 335 kts 313°
2026-05-04 00:05 32.51275 -96.59674 15320 ft 328 kts 314°
2026-05-04 00:05 32.56301 -96.65435 14229 ft 321 kts 313°
2026-05-04 00:05 32.60766 -96.70489 13257 ft 318 kts 314°
2026-05-04 00:06 32.65419 -96.75732 12813 ft 290 kts 314°
2026-05-04 00:06 32.66834 -96.77322 12816 ft 277 kts 314°
2026-05-04 00:06 32.68192 -96.78859 12754 ft 262 kts 311°
2026-05-04 00:06 32.69468 -96.80322 12631 ft 248 kts 313°
2026-05-04 00:07 32.70682 -96.81709 12481 ft 237 kts 312°
2026-05-04 00:07 32.72706 -96.84025 12327 ft 213 kts 310°
2026-05-04 00:07 32.73727 -96.85214 12314 ft 201 kts 311°
2026-05-04 00:07 32.74796 -96.86414 12391 ft 222 kts 310°
2026-05-04 00:08 32.75989 -96.87723 12350 ft 245 kts 313°
2026-05-04 00:08 32.77305 -96.89161 12102 ft 267 kts 313°
2026-05-04 00:08 32.78656 -96.90652 11992 ft 263 kts 319°
2026-05-04 00:08 32.80306 -96.91475 11768 ft 264 kts 351°
2026-05-04 00:09 32.82124 -96.91532 11631 ft 260 kts 356°
2026-05-04 00:09 32.83930 -96.91518 11408 ft 257 kts 355°
2026-05-04 00:09 32.85713 -96.91502 11196 ft 255 kts 356°
2026-05-04 00:09 32.87485 -96.91489 11010 ft 254 kts 358°
2026-05-04 00:10 32.89260 -96.91468 10830 ft 255 kts 358°
2026-05-04 00:10 32.91034 -96.91453 10599 ft 254 kts 358°
2026-05-04 00:10 32.92788 -96.91434 10295 ft 257 kts 356°
2026-05-04 00:10 32.94600 -96.91420 9715 ft 264 kts 358°
2026-05-04 00:11 32.96466 -96.91469 9059 ft 271 kts 347°
2026-05-04 00:11 32.98159 -96.92364 8383 ft 269 kts 310°
2026-05-04 00:11 32.99107 -96.94224 7787 ft 264 kts 282°
2026-05-04 00:11 32.99443 -96.96370 7160 ft 266 kts 270°
2026-05-04 00:12 32.99535 -96.98571 6533 ft 265 kts 268°
2026-05-04 00:12 32.99591 -97.00748 5891 ft 260 kts 267°
2026-05-04 00:12 32.99653 -97.02872 5439 ft 248 kts 267°
2026-05-04 00:12 32.99728 -97.04774 5408 ft 218 kts 267°
2026-05-04 00:13 32.99797 -97.06574 4810 ft 217 kts 267°
2026-05-04 00:13 32.99868 -97.08326 4457 ft 206 kts 266°
2026-05-04 00:13 32.99925 -97.09998 3941 ft 204 kts 266°
2026-05-04 00:13 33.00098 -97.11690 3339 ft 207 kts 269°
2026-05-04 00:14 33.00083 -97.13379 2901 ft 194 kts 249°
2026-05-04 00:14 32.99368 -97.14636 2703 ft 182 kts 208°
2026-05-04 00:14 32.98137 -97.14982 2275 ft 200 kts 175°
2026-05-04 00:14 32.96803 -97.14357 2062 ft 211 kts 147°
2026-05-04 00:15 32.95709 -97.13283 1803 ft 200 kts 140°
2026-05-04 00:15 32.94700 -97.12193 1509 ft 185 kts 142°
2026-05-04 00:15 32.93776 -97.11208 1265 ft 176 kts 140°
2026-05-04 00:15 32.92841 -97.10261 1062 ft 182 kts 141°
2026-05-04 00:16 32.91910 -97.09290 897 ft 175 kts 141°
2026-05-04 00:16 32.91008 -97.08375 678 ft 166 kts 141°
2026-05-04 00:16 32.90184 -97.07511 598 ft 146 kts 135°
2026-05-04 00:16 32.89496 -97.06819 592 ft 115 kts 138°
2026-05-04 00:17 32.89175 -97.06481 585 ft 30 kts 139°
2026-05-04 00:17 32.89125 -97.06340 588 ft 17 kts 56°
2026-05-04 00:17 32.89174 -97.06230 590 ft 15 kts 123°